When you browse on this site, cookies collect data to enhance your experience and personalize the content and advertising you see.
Visit our Privacy Policy to learn more. By continuing to use the site, you agree to this use of cookies and data.
  • In Hungary
  • List of Countries
  • For 7 days
  • Water Temperature
  • Satellite Maps
  • Weather Map
  • News
  • Weather Widgets
  • user-avatar
    Login

    Hourly Weather Lichen Stary

    Today, 17 June, Monday

    Time Temperature Precipitation Wind Pressure Humidity
    00:00 +14°C° 0 mm 3 mps 757 mmHg 83%
    01:00 +13°C° 0 mm 3 mps 757 mmHg 83%
    02:00 +12°C° 0 mm 3 mps 758 mmHg 84%
    03:00 +12°C° 0 mm 3 mps 758 mmHg 86%
    04:00 +12°C° 0 mm 3 mps 758 mmHg 87%
    05:00 +13°C° 0 mm 3 mps 758 mmHg 84%
    06:00 +16°C° 0 mm 3 mps 758 mmHg 80%
    07:00 +17°C° 0 mm 3 mps 758 mmHg 77%
    08:00 +19°C° 0 mm 3 mps 758 mmHg 71%
    09:00 +20°C° 0 mm 4 mps 758 mmHg 66%
    10:00 +21°C° 0 mm 4 mps 758 mmHg 60%
    11:00 +22°C° 0 mm 4 mps 758 mmHg 58%
    12:00 +23°C° 0 mm 4 mps 758 mmHg 56%
    13:00 +25°C° 0 mm 4 mps 758 mmHg 53%
    14:00 +25°C° 0 mm 3 mps 758 mmHg 54%
    15:00 +25°C° 0 mm 3 mps 758 mmHg 55%
    16:00 +25°C° 0 mm 3 mps 758 mmHg 56%
    17:00 +24°C° 0 mm 3 mps 757 mmHg 62%
    18:00 +21°C° 0 mm 3 mps 757 mmHg 68%
    19:00 +20°C° 0 mm 3 mps 757 mmHg 75%
    20:00 +19°C° 0 mm 2 mps 758 mmHg 75%
    21:00 +17°C° 0 mm 2 mps 758 mmHg 76%
    22:00 +16°C° 0 mm 2 mps 758 mmHg 76%
    23:00 +16°C° 0 mm 2 mps 758 mmHg 78%

    Tomorrow, 18 June, Tuesday

    Time Temperature Precipitation Wind Pressure Humidity
    00:00 +15°C° 0 mm 2 mps 758 mmHg 79%
    01:00 +14°C° 0 mm 2 mps 758 mmHg 80%
    02:00 +14°C° 0 mm 2 mps 758 mmHg 82%
    03:00 +14°C° 0 mm 2 mps 758 mmHg 83%
    04:00 +13°C° 0 mm 2 mps 758 mmHg 85%
    05:00 +14°C° 0 mm 3 mps 758 mmHg 82%
    06:00 +16°C° 0 mm 3 mps 758 mmHg 78%
    07:00 +18°C° 0 mm 3 mps 758 mmHg 75%
    08:00 +19°C° 0 mm 4 mps 758 mmHg 70%
    09:00 +21°C° 0 mm 4 mps 757 mmHg 65%
    10:00 +22°C° 0 mm 4 mps 757 mmHg 60%
    11:00 +23°C° 0 mm 4 mps 757 mmHg 59%
    12:00 +23°C° 0 mm 4 mps 756 mmHg 58%
    13:00 +25°C° 0 mm 4 mps 756 mmHg 56%
    14:00 +25°C° 0 mm 4 mps 756 mmHg 59%
    15:00 +25°C° 0 mm 4 mps 755 mmHg 62%
    16:00 +25°C° 0 mm 4 mps 755 mmHg 64%
    17:00 +23°C° 0 mm 4 mps 755 mmHg 70%
    18:00 +22°C° 0 mm 3 mps 754 mmHg 75%
    19:00 +22°C° 0 mm 3 mps 754 mmHg 80%
    20:00 +21°C° 0 mm 3 mps 754 mmHg 83%
    21:00 +20°C° 0 mm 3 mps 754 mmHg 85%
    22:00 +19°C° 0 mm 3 mps 754 mmHg 88%
    23:00 +19°C° 0.1 mm 4 mps 754 mmHg 86%

    Day after tomorrow, 19 June, Wednesday

    Time Temperature Precipitation Wind Pressure Humidity
    00:00 +19°C° 0.1 mm 4 mps 753 mmHg 84%
    01:00 +19°C° 0.1 mm 4 mps 753 mmHg 82%
    02:00 +19°C° 0.5 mm 4 mps 753 mmHg 85%
    03:00 +19°C° 0.5 mm 4 mps 752 mmHg 88%
    04:00 +18°C° 0.5 mm 4 mps 752 mmHg 90%
    05:00 +19°C° 0.2 mm 4 mps 752 mmHg 89%
    06:00 +20°C° 0.2 mm 4 mps 752 mmHg 88%
    07:00 +21°C° 0.2 mm 4 mps 752 mmHg 87%
    08:00 +21°C° 0.2 mm 4 mps 752 mmHg 85%
    09:00 +22°C° 0.2 mm 4 mps 751 mmHg 84%
    10:00 +23°C° 0.2 mm 4 mps 751 mmHg 83%
    11:00 +23°C° 0.1 mm 4 mps 751 mmHg 81%
    12:00 +24°C° 0.1 mm 3 mps 751 mmHg 80%
    13:00 +25°C° 0.1 mm 3 mps 750 mmHg 78%
    14:00 +25°C° 0 mm 2 mps 750 mmHg 77%
    15:00 +25°C° 0 mm 2 mps 750 mmHg 76%
    16:00 +26°C° 0 mm 1 mps 749 mmHg 74%
    17:00 +25°C° 0 mm 1 mps 749 mmHg 76%
    18:00 +25°C° 0 mm 1 mps 749 mmHg 79%
    19:00 +23°C° 0 mm 0 mps 749 mmHg 81%
    20:00 +24°C° 0 mm 1 mps 749 mmHg 83%
    21:00 +22°C° 0 mm 1 mps 749 mmHg 86%
    22:00 +21°C° 0 mm 1 mps 750 mmHg 89%
    23:00 +21°C° 0 mm 1 mps 750 mmHg 90%

    20 June, Thursday

    Time Temperature Precipitation Wind Pressure Humidity
    00:00 +21°C° 0 mm 1 mps 749 mmHg 91%
    01:00 +19°C° 0 mm 2 mps 749 mmHg 92%
    02:00 +19°C° 0 mm 2 mps 750 mmHg 91%
    03:00 +19°C° 0 mm 2 mps 750 mmHg 91%
    04:00 +19°C° 0 mm 2 mps 750 mmHg 91%
    05:00 +21°C° 0 mm 2 mps 750 mmHg 87%
    06:00 +23°C° 0 mm 2 mps 750 mmHg 82%
    07:00 +25°C° 0 mm 2 mps 750 mmHg 77%
    08:00 +26°C° 0 mm 2 mps 750 mmHg 72%
    09:00 +27°C° 0 mm 2 mps 751 mmHg 66%
    10:00 +29°C° 0 mm 2 mps 751 mmHg 61%
    11:00 +29°C° 0.1 mm 2 mps 751 mmHg 57%
    12:00 +30°C° 0.1 mm 2 mps 751 mmHg 52%
    13:00 +31°C° 0.1 mm 1 mps 751 mmHg 48%
    14:00 +31°C° 0 mm 1 mps 751 mmHg 48%
    15:00 +31°C° 0 mm 1 mps 751 mmHg 47%
    16:00 +29°C° 0 mm 0 mps 751 mmHg 47%
    17:00 +30°C° 0 mm 1 mps 751 mmHg 53%
    18:00 +28°C° 0 mm 1 mps 751 mmHg 59%
    19:00 +27°C° 0 mm 1 mps 751 mmHg 65%
    20:00 +25°C° 0.9 mm 2 mps 751 mmHg 73%
    21:00 +24°C° 0.9 mm 2 mps 752 mmHg 80%
    22:00 +21°C° 0.9 mm 2 mps 752 mmHg 88%
    23:00 +20°C° 1.2 mm 3 mps 752 mmHg 91%

    21 June, Friday

    Time Temperature Precipitation Wind Pressure Humidity
    00:00 +19°C° 1.2 mm 3 mps 752 mmHg 93%
    01:00 +19°C° 1.2 mm 3 mps 752 mmHg 96%
    02:00 +18°C° 0.2 mm 3 mps 752 mmHg 96%
    03:00 +18°C° 0.2 mm 3 mps 752 mmHg 96%
    04:00 +18°C° 0.2 mm 3 mps 752 mmHg 96%
    05:00 +19°C° 0 mm 3 mps 752 mmHg 93%
    06:00 +20°C° 0 mm 2 mps 753 mmHg 90%
    07:00 +20°C° 0 mm 2 mps 753 mmHg 87%
    08:00 +23°C° 0.1 mm 2 mps 753 mmHg 83%
    09:00 +24°C° 0.1 mm 2 mps 753 mmHg 79%
    10:00 +25°C° 0.1 mm 2 mps 753 mmHg 75%
    11:00 +26°C° 0.3 mm 3 mps 753 mmHg 72%
    12:00 +27°C° 0.3 mm 3 mps 752 mmHg 70%
    13:00 +28°C° 0.3 mm 3 mps 752 mmHg 67%
    14:00 +28°C° 0.2 mm 3 mps 752 mmHg 66%
    15:00 +28°C° 0.2 mm 3 mps 752 mmHg 66%
    16:00 +28°C° 0.2 mm 3 mps 751 mmHg 65%
    17:00 +27°C° 0.1 mm 2 mps 751 mmHg 70%
    18:00 +26°C° 0.1 mm 2 mps 751 mmHg 75%
    19:00 +25°C° 0.1 mm 2 mps 751 mmHg 81%
    20:00 +24°C° 0.4 mm 2 mps 751 mmHg 83%
    21:00 +23°C° 0.4 mm 2 mps 751 mmHg 86%
    22:00 +21°C° 0.4 mm 2 mps 752 mmHg 88%
    23:00 +21°C° 0.2 mm 2 mps 751 mmHg 90%

    22 June, Saturday

    Time Temperature Precipitation Wind Pressure Humidity
    00:00 +20°C° 0.2 mm 2 mps 751 mmHg 92%
    01:00 +20°C° 0.2 mm 2 mps 751 mmHg 93%
    02:00 +20°C° 0.1 mm 2 mps 751 mmHg 94%
    03:00 +20°C° 0.1 mm 2 mps 751 mmHg 95%
    04:00 +19°C° 0.1 mm 2 mps 751 mmHg 96%
    05:00 +20°C° 0.1 mm 2 mps 751 mmHg 94%
    06:00 +21°C° 0.1 mm 3 mps 751 mmHg 92%
    07:00 +21°C° 0.1 mm 3 mps 751 mmHg 90%
    08:00 +22°C° 0.2 mm 3 mps 751 mmHg 88%
    09:00 +24°C° 0.2 mm 3 mps 751 mmHg 86%
    10:00 +24°C° 0.2 mm 3 mps 751 mmHg 84%
    11:00 +23°C° 1.8 mm 4 mps 750 mmHg 86%
    12:00 +23°C° 1.8 mm 4 mps 750 mmHg 87%
    13:00 +23°C° 1.8 mm 5 mps 750 mmHg 89%
    14:00 +22°C° 1.1 mm 5 mps 750 mmHg 89%
    15:00 +22°C° 1.1 mm 5 mps 750 mmHg 89%
    16:00 +22°C° 1.1 mm 5 mps 749 mmHg 89%
    17:00 +21°C° 0.1 mm 6 mps 750 mmHg 90%
    18:00 +20°C° 0.1 mm 6 mps 750 mmHg 91%
    19:00 +18°C° 0.1 mm 7 mps 750 mmHg 92%
    20:00 +17°C° 0 mm 6 mps 750 mmHg 92%
    21:00 +16°C° 0 mm 6 mps 750 mmHg 91%
    22:00 +16°C° 0 mm 6 mps 751 mmHg 91%
    23:00 +15°C° 0.1 mm 6 mps 751 mmHg 90%
    Show more